TimeCST,TemperatureF,Dew PointF,Humidity,Sea Level PressureIn,VisibilityMPH,Wind Direction,Wind SpeedMPH,Gust SpeedMPH,PrecipitationIn,Events,Conditions,WindDirDegrees,DateUTC
12:53 AM,52.0,46.0,80,30.17,10.0,Calm,Calm,-,N/A,,Clear,0,2012-11-21 06:53:00
1:53 AM,52.0,46.0,80,30.17,10.0,SE,4.6,-,N/A,,Clear,140,2012-11-21 07:53:00
2:53 AM,51.1,46.0,83,30.17,10.0,SE,4.6,-,N/A,,Clear,130,2012-11-21 08:53:00
3:53 AM,50.0,46.0,86,30.18,10.0,Calm,Calm,-,N/A,,Clear,0,2012-11-21 09:53:00
4:53 AM,46.9,44.1,90,30.18,10.0,Calm,Calm,-,N/A,,Clear,0,2012-11-21 10:53:00
5:53 AM,48.0,44.1,86,30.19,10.0,Calm,Calm,-,N/A,,Clear,0,2012-11-21 11:53:00
6:53 AM,48.0,45.0,89,30.20,10.0,Calm,Calm,-,N/A,,Clear,0,2012-11-21 12:53:00
7:53 AM,51.1,46.9,86,30.22,10.0,Calm,Calm,-,N/A,,Clear,0,2012-11-21 13:53:00
8:53 AM,59.0,51.1,75,30.23,10.0,SSE,6.9,-,N/A,,Clear,150,2012-11-21 14:53:00
9:53 AM,64.9,52.0,63,30.23,10.0,SE,5.8,-,N/A,,Clear,140,2012-11-21 15:53:00
10:53 AM,73.0,55.9,55,30.21,10.0,SE,6.9,-,N/A,,Clear,140,2012-11-21 16:53:00
11:53 AM,75.9,55.9,50,30.18,10.0,SSE,9.2,-,N/A,,Clear,150,2012-11-21 17:53:00
12:53 PM,77.0,54.0,45,30.15,10.0,South,9.2,-,N/A,,Partly Cloudy,190,2012-11-21 18:53:00
1:53 PM,79.0,51.1,38,30.12,10.0,South,13.8,20.7,N/A,,Mostly Cloudy,190,2012-11-21 19:53:00
2:53 PM,78.1,53.1,42,30.11,10.0,South,12.7,-,N/A,,Mostly Cloudy,170,2012-11-21 20:53:00
3:53 PM,75.9,53.1,45,30.10,10.0,South,10.4,-,N/A,,Scattered Clouds,170,2012-11-21 21:53:00
4:53 PM,75.0,50.0,41,30.10,10.0,South,9.2,-,N/A,,Partly Cloudy,170,2012-11-21 22:53:00
5:53 PM,70.0,50.0,49,30.10,10.0,South,5.8,-,N/A,,Clear,170,2012-11-21 23:53:00
6:53 PM,66.9,48.9,52,30.11,10.0,SE,5.8,-,N/A,,Clear,140,2012-11-22 00:53:00
7:53 PM,64.9,48.9,56,30.12,10.0,SSE,8.1,-,N/A,,Clear,160,2012-11-22 01:53:00
8:53 PM,64.0,46.9,54,30.11,10.0,SSE,9.2,-,N/A,,Clear,150,2012-11-22 02:53:00
9:53 PM,62.1,46.0,56,30.11,10.0,SSE,10.4,-,N/A,,Clear,160,2012-11-22 03:53:00
10:53 PM,62.1,46.0,56,30.09,10.0,SSE,11.5,-,N/A,,Clear,150,2012-11-22 04:53:00
11:53 PM,57.9,45.0,62,30.06,10.0,SSE,10.4,-,N/A,,Clear,150,2012-11-22 05:53:00